Regional Weather Roundup
Issued by NWS

Home | Current Version | Previous Version | Text Only | Print | Product List | Glossary On
Versions: 1 2 3 4 5 6 7 8 9 10 11 12 13 14 15 16 17 18 19 20 21 22 23 24 25 26 27 28 29 30 31 32 33 34 35 36 37 38 39 40 41 42 43 44 45 46 47 48 49 50
000
ASUS43 KMKX 280911
RWRWI

WISCONSIN REGIONAL WEATHER ROUNDUP
NATIONAL WEATHER SERVICE MILWAUKEE/SULLIVAN WI
400 AM CDT WED JUN 28 2017

NOTE: "FAIR" INDICATES FEW OR NO CLOUDS BELOW 12,000 FEET WITH NO
SIGNIFICANT WEATHER AND/OR OBSTRUCTIONS TO VISIBILITY.

WIZ001-002-006>008-014>016-023>028-281000-
NORTHWEST WISCONSIN

CITY           SKY/WX    TMP DP  RH WIND       PRES   REMARKS
SUPERIOR ARPT  NOT AVBL
ASHLAND        CLEAR     48  45  89 CALM      29.78R
HAYWARD        CLOUDY    59  47  64 S5        29.78S
SIREN          MOCLDY    63  47  55 S9        29.73S
CUMBERLAND     CLOUDY    55  46  71 SE7       29.77F
RICE LAKE      CLOUDY    59  48  67 SE8       29.79S
CHETEK         CLOUDY    58  49  72 SE3       29.79S
LADYSMITH      CLOUDY    59  47  64 SE6       29.83S
EAU CLAIRE     CLOUDY    63  47  55 S12       29.78S
MENOMONIE      CLOUDY    61  49  65 SE7       29.78S
NEW RICHMOND   CLOUDY    64  47  53 SE8       29.72F
OSCEOLA        CLOUDY    64  48  56 SE7       29.74F
$$

WIZ003>005-009-010-017-018-281000-
NORTH CENTRAL WISCONSIN

CITY           SKY/WX    TMP DP  RH WIND       PRES   REMARKS
MANITOWISH WTR CLEAR     55  48  77 S8        29.83F
ARBOR VITAE    CLEAR     57  48  72 S9        29.84S
WOODRUFF       CLEAR     57  48  72 S9        29.84S
RHINELANDER    CLEAR     55  47  74 S7        29.87F
EAGLE RIVER    CLEAR     51  45  79 CALM      29.86S
LAND O LAKES   CLEAR     47  46  97 CALM      29.87F
PHILLIPS       CLOUDY    56  47  71 S9        29.84R
TOMAHAWK       NOT AVBL
MEDFORD        CLEAR     54  47  77 S10       29.85F
MERRILL        CLEAR     49  48  97 CALM      29.89R
$$

WIZ029-030-035-036-043>047-281000-
CENTRAL WISCONSIN

CITY           SKY/WX    TMP DP  RH WIND       PRES   REMARKS
WAUSAU           N/A    N/A N/A N/A MISG      29.87F
MOSINEE        CLEAR     52  46  82 SE6       29.89F
MARSHFIELD     CLOUDY    54  48  80 S7        29.86F
STEVENS POINT  CLEAR     56  46  69 S9        29.89F
WAUPACA        CLEAR     54  51  89 CALM      29.91F
WAUTOMA        CLEAR     48  47  96 MISG      29.92S
WISC RAPIDS    CLOUDY    55  47  74 S5        29.89F
CAMP DOUGLAS   PTCLDY    51  49  93 E6        29.87F
$$

WIZ011>013-019>022-031-037>040-048>050-281000-
NORTHEAST WISCONSIN

CITY           SKY/WX    TMP DP  RH WIND       PRES   REMARKS
ANTIGO         CLEAR     50  47  88 S7        29.90S
SHAWANO        CLEAR     57  50  77 CALM      29.89F
OCONTO         CLEAR     52  50  93 CALM      29.89F
STURGEON BAY   NOT AVBL
GREEN BAY      CLEAR     57  51  80 S6        29.91F
MANITOWOC      CLEAR     57  48  72 S7        29.94F
APPLETON       CLEAR     55  45  67 S9        29.91S
CLINTONVILLE   CLEAR     50  46  87 S5        29.90F
OSHKOSH        CLEAR     53  48  83 S6        29.93S
$$

WIZ032>034-041-042-053>061-281000-
SOUTHWEST WISCONSIN

CITY           SKY/WX    TMP DP  RH WIND       PRES   REMARKS
LA CROSSE      CLOUDY    70  50  49 S12       29.80F
SPARTA         CLOUDY    64  49  58 S9G16     29.85F
VIROQUA        CLOUDY    62  50  64 S12       29.85F
BOSCOBEL       MOCLDY    66  49  54 VRB5      29.86F
PRAIRIE DU CHI CLOUDY    67  48  49 SE12G21   29.84F
PLATTEVILLE    CLOUDY    61  52  72 SE10      29.90F
$$

WIZ056-057-062-063-064-067-068-281000-
SOUTH CENTRAL WISCONSIN

CITY           SKY/WX    TMP DP  RH WIND       PRES   REMARKS
REEDSBURG      PTCLDY    59  48  65 SE5       29.89F
BARABOO/DELLS  PTCLDY    58  47  66 S8        29.90F
LONE ROCK      MOCLDY    61  50  67 SE5       29.88F
MINERAL POINT  MOCLDY    61  50  67 SE10      29.91F
MADISON        CLOUDY    61  49  64 S10       29.91F
MIDDLETON      CLOUDY    62  48  61 S10       29.93S
WATERTOWN      NOT AVBL
MONROE         CLOUDY    61  46  59 S15       29.93F
JANESVILLE     PTCLDY    61  45  55 S8        29.94F
$$

WIZ051-052-058>065-066-070>072-281000-
SOUTHEAST WISCONSIN

CITY           SKY/WX    TMP DP  RH WIND       PRES   REMARKS
MILWAUKEE      PTCLDY    61  47  59 S8        29.97S
WAUKESHA       CLEAR     55  45  67 S6        29.97F
MILWAUKEE/TIMM CLEAR     55  45  67 S6        29.97F
RACINE         CLEAR     57  46  66 S6        29.99F
KENOSHA        CLEAR     57  48  72 S8        29.98F
FOND DU LAC    CLEAR     58  46  64 S7        29.93F
SHEBOYGAN      CLEAR     50  49  96 CALM      29.95S
WEST BEND      CLEAR     52  48  87 S5        29.96S
JUNEAU         CLEAR     54  47  77 SE7       29.95S
$$

LSZ147-162-281000-
LAKE SUPERIOR

STATION/POSITION TIME  TEMP    WIND        PRES    WAVE
                       AIR SEA DIR/SP/G            HT/PER
                 (UTC) (F)     (DEG/KT/KT) (MB)    (FT/S)
W MID LAKE BUOY  0850   46 39  190/ 10/ 10 1008.4F   1
DEVILS ISLAND    0900   61     170/ 10/ 15 1007.5R
PORT WING        0700   63     160/  8/ 20 1008.1
SAXON HARBOR     0840   61     190/  4/ 11 1007.8S
$$

LMZ867-665-643>646-281000-
LAKE MICHIGAN

STATION/POSITION TIME  TEMP    WIND        PRES    WAVE
                       AIR SEA DIR/SP/G            HT/PER
                 (UTC) (F)     (DEG/KT/KT) (MB)    (FT/S)
CHAMBERS ISLAND  0840   63     170/  5/  8 1011.9F
S GREEN BAY BUOY 0900   65     190/ 14/ 17 1012.1
N MID LAKE BUOY  0850   58 56  190/ 12/ 14 1013.6F   3/ 5
NORTHPORT PIER   0840   59     170/  2/  4 1012.5F
KEWAUNEE LAKESHO 0842   53     190/  6/  7 1012.9F
SHEBOYGAN LAKESH 0900   58     190/  9/ 10 1014.1R
PORT WASHINGTON  0840   55     190/  3/  6 1014.9F
ATWATER BUOY     0809   60 56  170/  8/ 10 1014.8F
MILWAUKEE LAKESH 0850   62     200/  9/ 10   N/A
S MID LAKE BUOY  0850   63 61  180/ 14/ 16 1015.7F   1/ 3
KENOSHA   LAKESH 0900   60     180/  6/  9 1015.2
$$

TC  - TEMPERATURE IN CELSIUS
VSB - VISIBILITY IN STATUTE MILES
WCI - WIND CHILL INDEX
HX  - HEAT INDEX




USA.gov is the U.S. government's official web portal to all federal, state and local government web resources and services.